SCP
0 0 0 0 0 0 0 0 0 0 0 0 0 0 0 0 0 0 0 0 0 0 0 0 0 0 0 0 0 0 0 0 0 0 0 0 0 0 0 0 0 0 0 0
0 0 0 0 0 0 0 0 0 0 0 0 0 0 0 0 0 0 0 0 0 0 0 0 0 0 0 0 0 0 0 0 0 0 0 0 0 0 0 0 0 0 0 0
0 0 0 0 0 0 0 0 0 0 0 0 0 0 0 0 0 0 0 0 0 0 0 0 0 0 0 0 0 0 0 0 0 0 0 0 0 0 0 0 0 0 0 0
0 0 0 0 0 0 0 0 0 0 0 0 0 0 0 0 0 0 0 0 0 0 0 0 0 0 0 0 0 0 0 0 0 0 0 0 0 0 0 0 0 0 0 0
0 0 0 0 0 0 0 0 0 0 0 0 0 0 0 0 0 0 0 0 0 0 0 0 0 0 0 0 0 0 0 0 0 0 0 0 0 0 0 0 0 0 0 0
0 0 0 0 0 0 0 0 0 0 0 0 0 0 0 0 0 0 0 0 0 0 0 0 0 0 0 0 0 0 0 0 0 0 0 0 0 0 0 0 0 0 0 0
0 0 0 0 0 0 0 0 0 0 0 0 0 0 0 0 0 0 0 0 0 0 0 0 0 0 0 0 0 0 0 0 0 0 0 0 0 0 0 0 0 0 0 0
0 0 0 0 0 0 0 0 0 0 0 0 0 0 0 0 0 0 0 0 0 0 0 0 0 0 0 0 0 0 0 0 0 0 0 0 0 0 0 0 0 0 0 0
0 0 0 0 0 0 0 0 0 0 0 0 0 0 0 0 0 0 0 0 0 0 0 0 0 0 0 0 0 0 0 0 0 0 0 0 0 0 0 0 0 0 0 0
0 0 0 0 0 0 0 0 0 0 0 0 0 0 0 0 0 0 0 0 0 0 0 0 0 0 0 0 0 0 0 0 0 0 0 0 0 0 0 0 0 0 0 0
0 0 0 0 0 0 0 0 0 0 0 0 0 0 0 0 0 0 0 0 0 0 0 0 0 0 0 0 0 0 0 0 0 0 0 0 0 0 0 0 0 0 0 0
0 0 0 0 0 0 0 0 0 0 0 0 0 0 0 -0 0 0 0 0 0 0 0 0 0 0 0 -0 -0 0 0 0 0 0 0 0 0 0 0 0 0 0 0 0
0 0 0 0 0 0 0 0 0 0 0 0 0 0 -0 -0 -0 0 0 0 0 0 0 0 0 0 0 0 0 0 0 0 0 0 0 0 0 0 0 0 0 0 0 0
0 0 0 0 0 0 0 0 0 0 0 0 0 0 -0 -0 -0 0 0 0 0 0 0 0 0 0 0 0 0 0 0 0 0 0 0 0 0 0 0 0 0 0 0 0
0 0 0 0 0 0 0 0 0 0 0 0 0 0 0 0 0 0 0 -0 -0 0 0 0 0 0 0 0 0 0 0 0 0 0 0 0 0 0 0 0 0 0 0 0
0 0 0 0 0 0 0 0 0 0 0 0 0 0 0 0 0 0 0 -0 -0 0 0 0 0 0 0 0 0 0 0 0 0 0 0 0 0 0 0 0 0 0 0 0
0 0 0 0 0 0 0 0 0 0 0 0 0 0 0 0 0 0 0 0 0 0 0 0 0 0 0 0 0 0 0 0 0 0 0 0 0 0 0 0 0 0 0 0
0 0 0 0 0 0 0 0 0 0 0 0 0 0 0 0 0 0 0 0 0 0 0 0 0 0 0 0 0 0 0 0 0 0 0 0 0 0 0 0 0 0 0 0
0 0 0 0 0 0 0 0 0 0 0 0 0 0 0 0 0 0 0 0 0 0 0 0 0 0 0 0 0 0 0 0 0 0 0 0 0 0 0 0 0 0 0 0
0 0 0 0 0 0 0 0 0 0 0 0 0 0 0 0 0 0 0 0 0 0 0 0 0 0 0 0 0 0 0 0 0 0 0 0 0 0 0 0 0 0 0 0
0 0 0 0 0 0 0 0 0 0 0 0 0 0 0 0 0 0 0 0 0 0 0 0 0 0 0 0 0 0 0 0 0 0 0 0 0 0 0 0 0 0 0 0
0 0 0 0 0 0 0 0 0 0 0 0 0 0 0 0 0 0 0 0 0 0 0 0 0 0 0 0 0 0 0 0 0 0 0 0 0 0 0 0 0 0 0 0
0 0 0 0 0 0 0 0 0 0 0 0 0 0 0 0 0 0 0 0 0 0 0 0 0 0 0 0 0 0 0 0 0 0 0 0 0 0 0 0 0 0 0 0
0 0 0 0 0 0 0 0 0 0 0 0 0 0 0 0 0 0 0 0 0 0 0 0 0 0 0 0 0 0 0 0 0 0 0 0 0 0 0 0 0 0 0 0
0 0 0 0 0 0 0 0 0 0 0 0 -0 0 0 0 0 0 0 0 0 0 0 0 0 0 0 0 0 0 0 0 0 0 0 0 0 0 0 0 0 0 0 0
0 0 0 0 0 0 0 0 0 0 0 0 -0 -0 -0 0 0 0 0 0 0 0 0 0 0 0 0 0 0 0 0 0 0 0 0 0 0 0 0 0 0 0 0 0
Wind_Speed
4 3 4 5 7 5 4 5 6 3 2 4 7 8 5 4 3 3 3 2 2 2 1 2 2 2 2 1 2 1 1 0 1 1 1 1 1 1 1 1 1 1 1 2
3 5 4 3 4 6 6 7 5 1 1 3 5 8 5 5 5 4 3 3 2 1 1 1 1 2 2 2 1 1 1 1 0 1 1 1 1 1 1 1 1 1 2 2
5 2 3 4 4 5 6 5 4 3 3 3 4 7 7 6 5 4 3 2 2 2 1 1 1 2 1 2 1 2 2 1 0 0 0 0 0 0 0 1 1 1 2 2
4 3 3 4 4 4 5 3 4 3 3 3 3 5 5 6 5 5 4 3 2 1 1 1 1 1 1 1 1 1 2 1 1 1 1 1 1 1 2 1 1 1 1 1
2 2 3 4 4 4 2 2 3 4 4 4 5 5 6 4 5 6 5 4 2 1 1 1 1 1 1 2 1 1 2 2 1 1 1 1 1 1 1 1 2 2 1 1
2 2 2 1 1 2 1 1 2 3 2 6 7 6 6 4 6 6 5 4 3 2 1 1 1 2 2 2 1 1 1 2 1 1 1 1 2 2 2 2 2 2 1 1
3 3 2 1 1 2 1 1 1 2 4 6 4 5 6 3 2 3 4 4 3 2 2 2 2 2 1 1 1 1 2 2 1 1 1 1 2 2 2 2 2 2 2 1
4 4 5 3 2 3 4 4 3 4 4 2 3 7 4 3 3 3 3 3 3 2 2 2 1 1 1 1 1 2 2 2 2 1 1 1 1 1 1 2 2 2 2 2
2 2 3 3 2 2 3 4 1 1 2 3 5 3 2 2 3 3 2 2 2 2 1 1 1 1 2 2 2 1 1 2 2 2 2 1 1 1 1 1 1 2 2 2
1 1 2 2 2 3 2 1 1 2 3 5 5 5 4 5 4 3 2 2 1 1 1 1 1 2 2 2 2 2 1 1 2 2 2 2 1 1 1 1 1 1 1 2
1 1 2 2 5 5 4 3 3 3 3 3 4 3 1 4 4 3 2 1 1 1 1 1 1 2 2 2 2 2 2 2 2 2 1 1 1 1 1 1 1 1 1 1
0 1 3 3 1 2 3 4 4 3 4 3 3 5 2 4 4 3 2 2 2 2 1 1 1 2 2 2 2 2 2 2 2 2 1 1 2 1 2 2 2 2 2 2
1 2 2 2 1 1 3 4 4 2 1 3 4 5 0 2 2 1 1 1 1 1 1 1 1 2 2 2 2 2 2 2 2 2 2 2 2 2 2 2 2 2 2 2
0 2 4 4 2 3 5 6 6 5 5 5 8 7 5 1 1 1 0 1 0 1 1 2 2 2 2 2 2 3 3 2 3 3 2 2 2 2 2 3 2 3 3 2
1 3 3 5 6 4 5 7 8 9 9 7 7 7 7 3 2 2 1 1 1 2 2 2 2 3 3 3 3 3 3 3 3 3 3 3 3 2 2 2 3 3 3 3
1 2 2 5 5 4 6 8 9 10 9 10 9 10 5 3 2 2 2 2 3 3 3 2 3 3 3 3 4 3 4 4 3 3 4 4 3 3 3 3 3 3 3 3
2 2 1 3 2 3 8 9 10 8 7 7 10 8 2 3 3 3 3 3 3 3 3 3 3 3 3 4 4 4 4 4 4 4 4 4 3 3 3 4 3 4 4 4
3 3 2 2 1 7 6 1 5 7 6 6 5 3 2 4 4 4 2 2 2 2 3 3 3 3 4 4 4 4 4 4 4 4 4 4 3 4 4 4 4 4 4 4
3 3 2 2 4 7 3 1 3 4 6 4 5 5 3 3 3 2 1 1 1 2 3 3 3 3 3 4 4 4 4 4 4 4 4 4 4 4 4 4 4 4 4 4
1 2 2 3 4 6 2 1 1 2 4 2 2 3 3 1 2 3 2 3 3 3 2 2 2 3 3 4 3 3 4 4 4 4 4 4 4 4 4 4 4 3 3 3
3 4 5 6 5 6 1 1 3 2 4 2 2 2 1 2 4 3 2 3 3 3 3 2 2 2 3 3 3 3 4 4 4 4 4 4 4 4 4 4 3 3 3 3
6 5 5 5 6 6 1 2 3 3 1 1 2 2 1 2 2 2 2 2 3 3 3 3 2 3 3 3 3 3 4 4 4 4 3 4 4 4 3 3 3 3 3 3
5 4 3 5 5 1 3 3 2 0 1 1 2 2 1 1 2 2 2 2 2 2 3 3 3 3 4 3 3 4 5 4 3 3 3 4 4 3 3 3 3 3 2 2
3 1 2 3 4 2 2 2 1 1 1 2 1 1 0 1 2 2 3 3 2 3 3 3 3 3 4 4 4 4 4 4 3 3 3 4 3 3 3 2 2 2 2 2
2 3 3 5 4 3 2 2 2 1 1 1 1 1 0 1 1 2 2 2 2 3 3 2 3 3 5 5 4 4 4 3 2 3 3 3 3 3 3 3 2 2 2 3
4 4 4 4 2 2 2 1 1 1 1 1 1 1 1 0 1 2 2 2 2 3 3 3 3 3 4 5 5 5 4 3 2 3 3 3 3 3 2 3 3 4 4 5
Wind_Direction
187 194 204 212 220 256 271 256 255 254 223 241 240 248 231 208 217 221 211 202 189 177 123 100 97 89 87 70 58 65 78 171 147 147 165 172 191 197 207 199 186 208 249 229
185 221 219 235 234 250 264 269 266 271 265 280 268 261 242 211 215 218 212 200 190 159 118 126 111 97 77 69 53 30 35 15 81 158 192 199 188 196 195 188 196 216 235 232
206 210 212 227 231 240 247 257 268 282 313 278 295 276 229 213 203 201 207 198 180 175 162 143 127 109 80 52 36 16 0 343 292 207 138 106 80 95 133 200 217 232 226 219
221 225 231 222 223 228 241 264 281 276 272 255 216 274 236 196 193 200 203 195 181 163 156 145 119 109 95 65 38 14 353 336 279 231 193 192 202 201 215 204 211 229 252 250
216 192 225 228 231 241 246 286 274 262 252 277 233 246 263 183 206 206 197 189 177 159 149 116 113 102 70 55 38 2 341 331 325 307 235 210 225 232 212 198 200 213 229 245
247 279 261 242 246 229 185 299 286 265 230 252 222 221 258 199 208 198 187 175 152 126 94 82 73 75 66 49 27 3 335 323 322 317 283 238 225 225 234 217 209 213 213 223
209 210 211 260 189 189 202 149 196 221 224 240 189 217 244 186 177 169 163 151 136 113 83 69 60 51 43 39 15 355 341 332 331 331 298 259 243 218 228 228 212 213 219 222
200 213 187 206 216 201 212 204 194 222 240 259 208 226 232 163 129 101 114 129 117 99 83 59 52 46 24 11 8 357 340 332 335 323 291 279 269 240 231 236 231 222 218 217
222 205 164 207 245 221 209 218 241 271 279 269 237 223 230 130 119 117 116 110 113 104 84 46 14 10 11 1 347 336 333 331 330 320 308 291 276 265 254 249 244 245 234 227
306 235 193 195 223 235 240 234 174 203 230 256 253 228 212 181 183 166 152 135 102 83 64 34 356 351 7 0 346 351 352 332 322 327 320 313 314 301 289 281 255 256 260 248
268 206 192 193 208 203 199 207 207 223 242 233 261 258 33 154 146 149 148 115 76 47 44 29 359 356 349 358 358 354 350 344 338 330 323 325 312 309 310 291 284 275 271 263
252 209 228 217 224 288 239 211 187 196 234 231 257 268 48 94 82 77 65 59 52 38 23 21 360 353 348 350 353 346 346 340 326 318 322 327 323 314 302 294 289 279 269 266
143 188 217 225 218 225 243 231 215 217 228 226 231 256 146 102 88 73 55 30 20 358 357 4 341 337 337 340 341 337 338 334 327 324 322 321 321 317 304 295 287 279 269 267
174 227 221 232 254 195 232 228 213 202 217 234 232 252 264 244 226 286 301 278 287 311 330 336 328 328 327 327 325 328 333 333 323 319 312 302 293 289 287 290 287 280 274 268
130 234 248 273 283 269 250 233 214 215 222 226 245 251 261 256 254 262 272 296 308 307 307 309 315 318 320 323 323 328 328 324 317 311 302 294 290 287 286 287 284 277 275 274
153 240 276 272 260 258 262 246 227 228 234 245 264 272 268 296 314 294 288 285 280 284 291 301 315 319 322 323 320 321 318 310 308 304 300 299 296 294 286 276 278 278 273 270
181 183 229 266 292 299 261 229 213 221 224 221 239 249 299 315 294 275 272 267 268 272 294 303 308 309 313 314 318 314 310 313 312 304 299 298 298 296 290 283 279 273 269 268
174 178 211 267 291 244 242 207 193 219 239 230 247 271 281 273 278 277 259 246 278 306 305 306 311 309 309 312 313 307 304 304 300 298 297 298 295 291 291 287 280 274 271 269
191 185 212 222 252 265 256 214 177 201 255 233 238 262 287 317 312 294 97 78 321 311 308 304 301 300 301 304 305 303 295 297 298 296 296 300 296 290 287 283 280 276 272 270
171 181 214 224 240 248 232 117 92 113 271 315 252 260 268 301 266 262 11 2 340 332 320 309 305 305 304 307 312 307 299 298 292 291 294 296 294 288 283 282 280 278 277 274
170 200 217 228 243 261 250 151 111 166 250 336 346 311 276 234 238 269 328 336 343 334 328 325 320 311 304 310 314 304 300 292 292 294 293 294 295 292 288 286 283 283 282 283
185 190 200 200 224 245 159 138 186 222 308 332 329 332 310 298 317 332 333 333 337 336 334 333 329 317 311 312 309 301 294 295 302 302 298 299 300 299 300 293 289 282 280 280
202 203 201 204 219 205 157 174 193 159 284 297 322 324 336 313 313 322 326 326 329 331 328 331 329 321 317 314 306 297 298 301 303 310 308 301 299 301 302 293 287 285 280 279
213 201 232 261 257 237 214 219 224 217 268 301 310 306 343 289 300 316 319 322 329 329 324 323 323 320 316 314 308 300 303 304 300 303 305 302 301 301 305 299 287 281 279 276
213 177 215 247 269 300 262 236 240 239 289 316 332 336 228 242 297 298 309 314 318 318 319 320 314 311 314 317 316 313 311 310 301 296 299 304 302 300 300 299 289 277 267 266
210 199 209 234 231 228 262 280 261 212 235 256 281 320 325 277 270 290 298 305 311 312 316 316 313 315 317 321 319 317 317 312 298 294 298 299 298 297 295 296 303 297 282 291